[[{"header":{"parameterUnit":"m.s-1","parameterCategory":1,"la1":30.2991,"la2":30.254,"lo1":-89.0895,"lo2":-89.0444,"dy":0.0017,"dx":0.0017,"nx":28,"ny":28,"refTime":"2024-08-19T09:00:00:Z","depth":0,"parameterNumber":2,"parameterNumberName":"U-component_of_WINDS"},"data":[0,0,0,0,0,0,0,0,0,0,0,0,0,0,0,0,0,0,0,0,0,0,0,0,0,0,0,0,0,0,0,0,0,0,0,0,0,0,0,0,0,0,0,0,0,0,0,0,0,0,0,0,0,0,0,0,0,0,-1.2965,-1.2966,0,-1.3022,-1.3022,-1.3023,-1.297,-1.2968,-1.2966,-1.2964,-1.3023,-1.3027,-1.303,0,0,0,0,0,0,0,0,0,0,0,0,0,-1.2813,-1.2816,-1.2965,-1.2966,-1.2967,-1.3022,-1.3022,-1.3023,-1.297,-1.2968,-1.2965,-1.2963,-1.3022,-1.3027,-1.3031,0,0,0,0,0,0,0,0,0,0,0,0,0,-1.2875,-1.2817,-1.2965,-1.2947,-1.2946,-1.3021,-1.3022,-1.3023,-1.2971,-1.2968,-1.2964,-1.2961,-1.3021,-1.3026,-1.3031,-1.3129,0,0,-1.3048,-1.305,0,0,0,0,0,0,0,0,-1.2872,-1.2881,-1.2949,-1.2948,-1.2947,-1.2985,-1.2991,-1.3059,-1.2972,-1.2961,-1.2964,-1.296,-1.3014,-1.3019,-1.3037,-1.3131,-1.3134,-1.3048,-1.3052,-1.3054,-1.3055,0,0,0,0,0,0,0,-1.2868,-1.2878,-1.2988,-1.295,-1.2949,-1.2936,-1.2942,-1.3003,-1.3005,-1.2962,-1.2958,-1.2966,-1.3012,-1.3032,-1.3038,-1.3135,-1.3048,-1.3053,-1.3056,-1.3058,-1.3312,-1.3316,0,0,0,0,0,0,-1.2865,-1.2875,-1.2986,-1.2989,-1.2901,-1.2942,-1.2948,-1.2976,-1.3004,-1.3005,-1.2968,-1.2963,-1.3024,-1.3032,-1.304,-1.3156,-1.3054,-1.3059,-1.3062,-1.3309,-1.3313,-1.3317,0,0,0,0,0,0,-1.2862,-1.2875,-1.2983,-1.2931,-1.2944,-1.2948,-1.298,-1.2979,-1.2999,-1.3009,-1.3009,-1.2988,-1.3022,-1.3032,-1.3107,-1.3158,-1.3061,-1.3066,-1.3305,-1.331,-1.3315,-1.339,0,0,0,0,0,0,-1.2858,-1.2875,-1.2911,-1.2932,-1.2947,-1.305,-1.2984,-1.2983,-1.3008,-1.3001,-1.3027,-1.3028,-1.302,-1.3099,-1.3112,-1.3163,-1.307,-1.33,-1.3307,-1.3313,-1.3383,-1.3397,-1.3409,0,0,0,0,0,-1.2853,-1.2931,-1.2914,-1.2927,-1.2993,-1.3053,-1.3061,-1.305,-1.3012,-1.3049,-1.3056,-1.3027,-1.3149,-1.3107,-1.3122,-1.3175,-1.3297,-1.3305,-1.3313,-1.3377,-1.3394,-1.3409,0,0,0,0,0,0,-1.2916,-1.2933,-1.2914,-1.3001,-1.3026,-1.3043,-1.309,-1.3068,-1.3105,-1.3097,-1.3082,-1.3088,-1.3167,-1.3178,-1.3131,-1.3271,-1.3217,-1.3228,-1.3261,-1.3278,-1.329,-1.3287,-1.3075,0,0,0,0,0,-1.294,-1.2987,-1.2999,-1.3074,-1.3088,-1.3087,-1.3112,-1.3101,-1.3127,-1.3137,-1.3149,-1.3175,-1.3219,-1.3248,-1.3289,-1.3383,-1.3389,-1.3427,-1.344,-1.3451,-1.3461,-1.3512,-1.353,-1.3343,-1.3343,-1.3343,0,0,-1.2991,-1.3006,-1.3036,-1.3088,-1.3105,-1.3155,-1.3096,-1.315,-1.3187,-1.3145,-1.3217,-1.3226,-1.3254,-1.3339,-1.3377,-1.3351,-1.3514,-1.3461,-1.3469,-1.3474,-1.3522,-1.354,-1.3556,-1.3348,-1.3347,-1.3346,0,0,-1.3108,-1.3124,-1.3189,-1.3207,-1.3235,-1.3233,-1.3249,-1.327,-1.3274,-1.3345,-1.3315,-1.3358,-1.3435,-1.3456,-1.3477,-1.3601,-1.3577,-1.3615,-1.3684,-1.3734,-1.3749,-1.3762,-1.3808,-1.3824,-1.3625,-1.3625,-1.3625,0,-1.3168,-1.3241,-1.3225,-1.3282,-1.3306,-1.3269,-1.3335,-1.3354,-1.3394,-1.3411,-1.3381,-1.3476,-1.3492,-1.3581,-1.3612,-1.3629,-1.3647,-1.3613,-1.3748,-1.3761,-1.3773,-1.3817,-1.3834,-1.363,-1.3629,-1.3629,-1.3628,0,-1.3313,-1.3364,-1.3413,-1.3452,-1.3481,-1.3542,-1.3536,-1.3568,-1.3554,-1.3556,-1.3629,-1.3647,-1.3691,-1.3711,-1.3698,-1.3799,-1.3782,-1.375,-1.3697,-1.3796,-1.3836,-1.3853,-1.3636,-1.3635,-1.3633,-1.3632,0,0,-1.3474,-1.3503,-1.3521,-1.3539,-1.3565,-1.3605,-1.3664,-1.3707,-1.3734,-1.3762,-1.3813,-1.3877,-1.3848,-1.3872,-1.3861,-1.3904,-1.4003,-1.3867,-1.3867,-1.3893,-1.4117,-1.4142,-1.4162,-1.3986,-1.3989,-1.3992,-1.4115,0,-1.3594,-1.3697,-1.3684,-1.3783,-1.383,-1.3796,-1.3847,-1.387,-1.3873,-1.3914,-1.3917,-1.3964,-1.3921,-1.3935,-1.3976,-1.3983,-1.4048,-1.3973,-1.4034,-1.4037,-1.403,-1.4183,-1.421,-1.4325,-1.4131,-1.4133,-1.4135,0,-1.3748,-1.3781,-1.3885,-1.3904,-1.3923,-1.397,-1.4008,-1.4047,-1.4072,-1.4071,-1.4097,-1.4078,-1.4139,-1.4082,-1.4165,-1.4114,-1.4138,-1.4145,-1.4149,-1.4156,-1.4094,-1.4196,-1.4362,-1.438,-1.416,-1.4158,-1.4156,0,-1.3857,-1.3927,-1.3998,-1.4014,-1.4038,-1.4072,-1.4084,-1.4105,-1.4132,-1.4165,-1.4182,-1.4222,-1.4244,-1.4276,-1.4268,-1.4228,-1.4354,-1.4297,-1.4356,-1.4357,-1.4386,-1.4385,-1.4561,-1.4399,-1.4398,-1.4398,-1.4398,0,-1.3993,-1.4058,-1.4048,-1.4092,-1.4164,-1.4149,-1.422,-1.4228,-1.4247,-1.4292,-1.4264,-1.4307,-1.4294,-1.4336,-1.4331,-1.4401,-1.4411,-1.4413,-1.4411,-1.4417,-1.4417,-1.4434,-1.4426,-1.4402,-1.4401,-1.4401,-1.44,0,-1.4128,-1.4124,-1.4199,-1.4216,-1.4221,-1.4274,-1.4288,-1.433,-1.433,-1.4388,-1.44,-1.4401,-1.445,-1.4445,-1.4499,-1.4496,-1.4583,-1.4571,-1.4575,-1.4573,-1.4634,-1.4629,-1.4828,-1.4854,-1.4674,-1.4675,-1.4677,0,-1.4216,-1.4266,-1.4287,-1.4315,-1.4329,-1.4374,-1.4401,-1.4387,-1.4416,-1.4448,-1.4486,-1.4532,-1.4568,-1.4647,-1.4653,-1.4695,-1.4685,-1.4751,-1.4691,-1.4695,-1.4688,-1.4686,-1.4691,-1.4764,-1.4766,-1.4768,-1.4769,0,-1.4374,-1.4369,-1.4408,-1.4447,-1.4479,-1.4509,-1.4536,-1.4561,-1.455,-1.4584,-1.4633,-1.4661,-1.4716,-1.4763,-1.4802,-1.4814,-1.4791,-1.4788,-1.4804,-1.4811,-1.4813,-1.4814,-1.461,-1.4784,-1.4782,-1.4781,-1.4781,-1.478,-1.4489,-1.4532,-1.4553,-1.4598,-1.4617,-1.4642,-1.4683,-1.4687,-1.4728,-1.4772,-1.4761,-1.4817,-1.484,-1.489,-1.4906,-1.495,-1.4926,-1.4949,-1.4955,-1.4962,-1.497,-1.4804,-1.4957,-1.4956,-1.4956,-1.4956,-1.4955,0,-1.4647,-1.4658,-1.47,-1.4738,-1.4774,-1.4746,-1.4775,-1.4806,-1.4856,-1.4879,-1.4915,-1.4971,-1.5016,-1.5025,-1.5067,-1.5101,-1.5091,-1.5113,-1.5111,-1.5114,-1.4988,-1.4971,-1.512,-1.512,-1.512,-1.512,-1.512,-1.512,-1.4733,-1.4803,-1.4801,-1.4881,-1.4892,-1.4946,-1.4965,-1.4989,-1.5007,-1.5071,-1.5108,-1.5113,-1.5131,-1.5174,-1.5214,-1.5215,-1.5233,-1.526,-1.5257,-1.514,-1.5123,-1.5108,-1.5091,-1.5263,-1.5263,-1.538,-1.5381,-1.5382]},{"header":{"parameterUnit":"m.s-1","parameterCategory":1,"la1":30.2991,"la2":30.254,"lo1":-89.0895,"lo2":-89.0444,"dy":0.0017,"dx":0.0017,"nx":28,"ny":28,"refTime":"2024-08-19T09:00:00:Z","depth":0,"parameterNumber":3,"parameterNumberName":"V-component_of_WINDS"},"data":[0,0,0,0,0,0,0,0,0,0,0,0,0,0,0,0,0,0,0,0,0,0,0,0,0,0,0,0,0,0,0,0,0,0,0,0,0,0,0,0,0,0,0,0,0,0,0,0,0,0,0,0,0,0,0,0,0,0,-3.4697,-3.4697,0,-3.4736,-3.4736,-3.4736,-3.4673,-3.4671,-3.4669,-3.4667,-3.4705,-3.4708,-3.4711,0,0,0,0,0,0,0,0,0,0,0,0,0,-3.4566,-3.4569,-3.4697,-3.4697,-3.4698,-3.4735,-3.4736,-3.4736,-3.4673,-3.4671,-3.4668,-3.4666,-3.4704,-3.4707,-3.4711,0,0,0,0,0,0,0,0,0,0,0,0,0,-3.4616,-3.457,-3.4697,-3.4671,-3.4669,-3.4735,-3.4736,-3.4737,-3.4674,-3.4671,-3.4667,-3.4664,-3.4703,-3.4707,-3.4712,-3.4805,0,0,-3.4725,-3.4727,0,0,0,0,0,0,0,0,-3.4613,-3.462,-3.4674,-3.4673,-3.4671,-3.4696,-3.4704,-3.4759,-3.4675,-3.4672,-3.4666,-3.4663,-3.4704,-3.4709,-3.4723,-3.4806,-3.4808,-3.4726,-3.4729,-3.4731,-3.4732,0,0,0,0,0,0,0,-3.461,-3.4618,-3.4712,-3.4675,-3.4673,-3.4656,-3.466,-3.4714,-3.4706,-3.4672,-3.4667,-3.4673,-3.4703,-3.4719,-3.4723,-3.4809,-3.4726,-3.473,-3.4733,-3.4734,-3.4968,-3.4972,0,0,0,0,0,0,-3.461,-3.4616,-3.4711,-3.4713,-3.4633,-3.4662,-3.4665,-3.4691,-3.4705,-3.4704,-3.4676,-3.467,-3.4713,-3.4718,-3.4724,-3.4833,-3.4731,-3.4735,-3.4737,-3.4965,-3.4969,-3.4973,0,0,0,0,0,0,-3.4607,-3.4619,-3.4709,-3.4663,-3.4674,-3.4667,-3.4697,-3.4694,-3.4709,-3.4708,-3.4706,-3.4694,-3.471,-3.4718,-3.4785,-3.4834,-3.4737,-3.4741,-3.4961,-3.4966,-3.4971,-3.5052,0,0,0,0,0,0,-3.4604,-3.4618,-3.4654,-3.4665,-3.4676,-3.477,-3.47,-3.4697,-3.4718,-3.471,-3.4724,-3.4723,-3.4708,-3.4778,-3.4789,-3.4838,-3.4745,-3.4956,-3.4963,-3.4969,-3.5045,-3.506,-3.5072,0,0,0,0,0,-3.4599,-3.4676,-3.4656,-3.4668,-3.4721,-3.4773,-3.478,-3.4761,-3.4722,-3.4757,-3.4756,-3.4723,-3.4827,-3.4786,-3.4798,-3.4849,-3.4953,-3.4961,-3.4969,-3.5039,-3.5057,-3.5072,0,0,0,0,0,0,-3.4671,-3.4677,-3.4655,-3.4738,-3.4755,-3.4762,-3.4807,-3.4781,-3.4809,-3.4801,-3.4777,-3.478,-3.4852,-3.4857,-3.4811,-3.4938,-3.4883,-3.4894,-3.4933,-3.4949,-3.4962,-3.496,-3.4748,0,0,0,0,0,-3.4696,-3.4738,-3.4741,-3.4813,-3.4823,-3.4814,-3.4835,-3.4819,-3.4837,-3.4844,-3.4847,-3.4865,-3.4901,-3.4925,-3.4959,-3.5045,-3.5047,-3.5086,-3.51,-3.5111,-3.512,-3.5165,-3.5182,-3.4999,-3.4999,-3.4998,0,0,-3.4749,-3.4758,-3.4786,-3.4828,-3.484,-3.4883,-3.482,-3.4869,-3.49,-3.4851,-3.4914,-3.4917,-3.4935,-3.5012,-3.5046,-3.5018,-3.5171,-3.5121,-3.5129,-3.5133,-3.5174,-3.5192,-3.5207,-3.5004,-3.5003,-3.5002,0,0,-3.4868,-3.4879,-3.494,-3.4953,-3.4971,-3.4964,-3.4979,-3.4989,-3.499,-3.5053,-3.5016,-3.5052,-3.5116,-3.5129,-3.5145,-3.5267,-3.5237,-3.5278,-3.5348,-3.5392,-3.5406,-3.5419,-3.5461,-3.5477,-3.5288,-3.5288,-3.5288,0,-3.4931,-3.4996,-3.4974,-3.5025,-3.5044,-3.5001,-3.5062,-3.5075,-3.5104,-3.5117,-3.5086,-3.5164,-3.5173,-3.5251,-3.5281,-3.5295,-3.531,-3.5277,-3.5406,-3.5419,-3.543,-3.547,-3.5486,-3.5293,-3.5292,-3.5292,-3.5291,0,-3.5072,-3.5117,-3.5164,-3.5192,-3.5216,-3.5272,-3.5258,-3.5285,-3.5267,-3.5262,-3.5326,-3.5335,-3.5369,-3.5386,-3.5369,-3.5462,-3.5444,-3.541,-3.5354,-3.5453,-3.549,-3.5505,-3.53,-3.5298,-3.5297,-3.5295,0,0,-3.5238,-3.5253,-3.527,-3.5282,-3.5298,-3.5332,-3.5385,-3.5418,-3.5441,-3.5462,-3.5505,-3.5559,-3.5527,-3.5544,-3.5528,-3.5567,-3.5661,-3.5527,-3.5527,-3.5551,-3.5763,-3.5788,-3.5806,-3.5641,-3.5644,-3.5646,-3.5761,0,-3.5354,-3.5446,-3.5428,-3.5517,-3.5558,-3.5517,-3.5563,-3.5577,-3.5575,-3.5608,-3.5604,-3.5642,-3.5598,-3.5608,-3.5644,-3.5642,-3.5703,-3.5633,-3.568,-3.5682,-3.5676,-3.5826,-3.5853,-3.5961,-3.5775,-3.5778,-3.578,0,-3.5504,-3.553,-3.5623,-3.5632,-3.5648,-3.569,-3.5718,-3.5751,-3.5766,-3.5761,-3.578,-3.5755,-3.5807,-3.575,-3.582,-3.5773,-3.5791,-3.5792,-3.5796,-3.5799,-3.5737,-3.5832,-3.5995,-3.6011,-3.5803,-3.5801,-3.5799,0,-3.5614,-3.5672,-3.5735,-3.5747,-3.5759,-3.5789,-3.5795,-3.5807,-3.5828,-3.5852,-3.5865,-3.5895,-3.5911,-3.5934,-3.5918,-3.5879,-3.599,-3.5933,-3.5987,-3.5987,-3.6012,-3.601,-3.6179,-3.6025,-3.6025,-3.6024,-3.6024,0,-3.5746,-3.5805,-3.5785,-3.5824,-3.5887,-3.5865,-3.5929,-3.593,-3.5941,-3.5978,-3.5945,-3.598,-3.5957,-3.5991,-3.5979,-3.6038,-3.6045,-3.6042,-3.6038,-3.6045,-3.6045,-3.6056,-3.6048,-3.6028,-3.6028,-3.6027,-3.6026,0,-3.588,-3.5869,-3.5935,-3.5941,-3.5943,-3.599,-3.5994,-3.603,-3.6024,-3.6072,-3.6082,-3.6073,-3.611,-3.6097,-3.6137,-3.6129,-3.6203,-3.619,-3.6198,-3.6195,-3.6249,-3.6244,-3.6429,-3.6452,-3.6284,-3.6286,-3.6287,0,-3.5965,-3.6009,-3.6019,-3.6042,-3.6051,-3.6088,-3.6108,-3.6088,-3.611,-3.613,-3.6163,-3.6198,-3.6224,-3.6286,-3.6283,-3.6313,-3.6299,-3.6362,-3.6304,-3.6308,-3.6299,-3.6296,-3.63,-3.6374,-3.6376,-3.6377,-3.6379,0,-3.6117,-3.6109,-3.614,-3.6169,-3.6194,-3.6216,-3.6235,-3.6255,-3.6236,-3.6263,-3.6301,-3.6321,-3.6362,-3.6396,-3.6423,-3.6428,-3.64,-3.6397,-3.6411,-3.6418,-3.6421,-3.6419,-3.623,-3.6393,-3.6391,-3.639,-3.639,-3.6389,-3.6228,-3.6264,-3.6277,-3.6312,-3.6324,-3.6342,-3.6375,-3.6373,-3.6405,-3.6436,-3.6422,-3.6466,-3.6478,-3.6511,-3.652,-3.6553,-3.6529,-3.6549,-3.6554,-3.656,-3.6566,-3.6416,-3.6558,-3.6558,-3.6557,-3.6557,-3.6557,0,-3.6377,-3.6382,-3.6415,-3.6442,-3.647,-3.6441,-3.646,-3.6484,-3.6523,-3.6537,-3.6564,-3.6607,-3.664,-3.6638,-3.6669,-3.6695,-3.6683,-3.6704,-3.6701,-3.6703,-3.6587,-3.6571,-3.6713,-3.6713,-3.6713,-3.6713,-3.6713,-3.6713,-3.6457,-3.6517,-3.6511,-3.6575,-3.658,-3.6623,-3.6636,-3.6652,-3.6663,-3.6712,-3.6739,-3.6738,-3.6746,-3.6776,-3.6804,-3.6803,-3.6815,-3.6841,-3.6835,-3.6727,-3.6711,-3.6696,-3.6681,-3.6844,-3.6844,-3.6947,-3.6948,-3.6949]}]]